Home > Weather > Topeka > Past weeks

Flag for USA Past Weather in Topeka, Kansas, USA — Yesterday and Last 2 Weeks

Now
78 °F

Clear.


Feels Like: 81 °F
Forecast: 72 / 85 °F
Wind: No wind

Location: Philip Billard Municipal Airport

Current Time: Aug 29, 2016 at 10:26:26 PM

Latest Report: Aug 29, 2016 at 9:53 PM


Visibility: 10 mi

Pressure: 30.12 "Hg

Humidity: 87%

Dew Point: 74 °F

Location of TopekaLocation

Past Weather in Topeka — Graph

°F

Topeka Temperature Yesterday

Maximum temperature yesterday: 89 °F (at 1:53 PM)
Minimum temperature yesterday: 69 °F (at 6:53 AM)
Average temperature yesterday: 79 °F

High & Low Weather Summary for the Past Weeks

 TemperatureHumidityPressure
High92 °F (Aug 17, 3:53 PM)100% (Aug 25, 6:53 AM)30.16 "Hg (Aug 25, 6:53 AM)
Low56 °F (Aug 21, 2:53 AM)35% (Aug 21, 1:53 PM)29.71 "Hg (Aug 19, 5:53 PM)
Average75 °F76%30.00 "Hg
* Reported Aug 14 8:53 PM — Aug 29 8:53 PM, Topeka, Weather by CustomWeather, © 2016

Note: Actual official high and low records may vary slightly from our data, if they occured in-between our weather recording intervals... More about our weather records

Advertising

Topeka Weather History for the Previous 24 Hours

Scroll right to see more
 ConditionsComfort  
Time TempWeatherWind HumidityBarometerVisibility
8:53 PM
Mon, Aug 29
80 °FSunny.No wind79%30.09 "Hg10 mi
7:53 PM80 °FScattered clouds.No wind79%30.08 "Hg10 mi
6:53 PM86 °FSunny.3 mph57%30.07 "Hg10 mi
5:53 PM89 °FSunny.8 mph48%30.06 "Hg10 mi
4:53 PM89 °FSunny.9 mph53%30.07 "Hg10 mi
3:53 PM88 °FSunny.9 mph54%30.08 "Hg10 mi
2:53 PM90 °FPassing clouds.3 mph50%30.10 "Hg10 mi
1:53 PM86 °FBroken clouds.6 mph59%30.13 "Hg10 mi
12:53 PM88 °FSunny.3 mph54%30.15 "Hg10 mi
11:53 AM87 °FSunny.5 mph55%30.16 "Hg10 mi
10:53 AM84 °FPartly sunny.6 mph63%30.16 "Hg10 mi
9:53 AM80 °FSunny.No wind79%30.15 "Hg10 mi
8:53 AM76 °FSunny.No wind88%30.14 "Hg10 mi
7:53 AM72 °FSunny.No wind91%30.14 "Hg10 mi
6:53 AM70 °FClear.3 mph93%30.12 "Hg10 mi
5:53 AM70 °FClear.3 mph90%30.10 "Hg10 mi
4:53 AM72 °FClear.No wind87%30.09 "Hg10 mi
3:53 AM71 °FClear.3 mph93%30.10 "Hg10 mi
2:53 AM73 °FClear.No wind88%30.08 "Hg10 mi
1:53 AM73 °FClear.No wind88%30.06 "Hg10 mi
12:53 AM75 °FClear.3 mph82%30.08 "Hg10 mi
11:53 PM
Sun, Aug 28
75 °FClear.3 mph82%30.10 "Hg10 mi
10:53 PM77 °FPassing clouds.14 mph82%30.11 "Hg10 mi
Weather by CustomWeather, © 2016

See weather overviewHow to use our weather pages